STARLINK-34406, 64705

Orbit data source: Space-Track

STARLINK-34406, 64705 is a payload satellite owned by SpaceX/Seattle (US) in LEO that was launched on Sat, 28 Jun 2025 UTC via an FALCON 9 launch vehicle from the Air Force Western Test Range (AFWTR). Payload-class satellites include a variety of spacecraft equipped with specific instruments for various scientific and technological missions. These include communications satellites like Starlink; space stations such as the ISS; scientific satellites like the Hubble; Earth observation satellites from companies like Planet Labs, Umbra, and HawkEye 360; GPS; miniature CubeSats for education and research; and military/defense satellites.

Loading next visibility...
Identifier
64705, 2025-142K
Orbit
LEO
Country
Flag of USUS
Related business
Manufacturer
SpaceX/Seattle
Mission
Operational Commercial Communications
Bus & Motor
STARLINK V2MO, Unknown motor
Mass
575 kg wet, ~530 kg dry
Launch date (UTC)
2025-06-28 (1 year ago)
Launch vehicle
FALCON 9
Launch site
Air Force Western Test Range (AFWTR)
Object type
Payload
Rocket body
Debris
Shape & HBR
Box + 1 Pan, 17.7 m
Radar Cross Section
41.120 m², Large (>1 m²)

Expand to show TLE details & history
Last TLE update: 15 hours ago

TLE from 15 hours ago
0 STARLINK-34406
1 64705U 25142K   26264.07299142  .00019120  00000-0  66770-3 0  9992
2 64705  70.0039 179.5824 0002226 296.7539  63.3408 15.29590919 68921
Epoch: 2026-09-21T01:45Z
TLE epoch observation values (Epoch: 2026-09-21T01:45:06.458Z)
Latitude
-0.00006°
Longitude
153.34741°
Altitude
478.808 km
Speed
7.627 km/s
True Right ascension
11h 58m 19s
True Declination
0° 00' 00"
Sunlit
Object was in daylight at epoch
Visualization orbit readout
Latitude
Unknown
Longitude
Unknown
Altitude
Unknown
Speed
Unknown
Apparent Right ascension
Unknown
Apparent Declination
Unknown
Sunlit
N/A
Visualization observer readout
Local Sidereal Time
09:56:43
Azimuth
Unknown
Elevation
Unknown
Doppler factor
Unknown
Orbital elements
Apogee altitude
476.479 km
Perigee altitude
473.428 km
Semi-major axis
6,853.091 km
Eccentricity
0.00022
Inclination
70.0039°
RAAN
179.5824°
Arg. of periapsis
296.7539°
True anomaly
63.3636°
Mean anomaly
63.3408°
Eccentric anomaly
63.3522°
Mean motion
3.82572 °/min
Orbital period
94.1 mins
BSTAR
0.0006677
Loading maneuver chart data...
Computing Atmospheric mass density...
Loading historical data...
Loading historical data...
Loading historical data...
Loading historical data...
Loading historical data...
Loading historical data...
Loading historical data...

Documentation

Showing up to 5 results
|